TimeAWST,TemperatureF,Dew PointF,Humidity,Sea Level PressureIn,VisibilityMPH,Wind Direction,Wind SpeedMPH,Gust SpeedMPH,PrecipitationIn,Events,Conditions,WindDirDegrees,DateUTC
12:00 AM,82,69,56,29.79,,Calm,Calm,,,,,,2012-11-26 16:00:00
12:00 AM,82.4,69.8,66,29.80,-9999.0,Calm,Calm,-,N/A,,Unknown,0,2012-11-26 16:00:00
1:00 AM,82.4,69.8,66,29.77,-9999.0,NNW,4.6,-,N/A,,Unknown,330,2012-11-26 17:00:00
2:00 AM,82.4,73.4,74,29.80,-9999.0,WSW,2.3,-,N/A,,Unknown,250,2012-11-26 18:00:00
3:00 AM,83,75,70,29.79,,SSW,4.6,,,,,210,2012-11-26 19:00:00
3:00 AM,82.4,75.2,79,29.80,-9999.0,SSW,4.6,-,N/A,,Unknown,210,2012-11-26 19:00:00
4:00 AM,80.6,77.0,89,29.80,-9999.0,SSW,4.6,-,N/A,,Unknown,210,2012-11-26 20:00:00
5:00 AM,82.4,77.0,84,29.83,-9999.0,SW,6.9,-,N/A,,Unknown,230,2012-11-26 21:00:00
6:00 AM,82,75,75,29.84,,SSW,4.6,,,,,210,2012-11-26 22:00:00
6:00 AM,82.4,75.2,79,29.83,-9999.0,SSW,4.6,-,N/A,,Unknown,210,2012-11-26 22:00:00
7:00 AM,84.2,73.4,70,29.86,-9999.0,SSW,5.8,-,N/A,,Unknown,200,2012-11-26 23:00:00
8:00 AM,87.8,69.8,55,29.86,-9999.0,South,6.9,-,N/A,,Unknown,190,2012-11-27 00:00:00
9:00 AM,93,69,36,29.84,,South,8.1,,,,,180,2012-11-27 01:00:00
9:00 AM,93.2,69.8,46,29.86,-9999.0,South,8.1,-,N/A,,Unknown,180,2012-11-27 01:00:00
10:00 AM,96.8,62.6,32,29.83,-9999.0,SSE,4.6,-,N/A,,Unknown,160,2012-11-27 02:00:00
11:00 AM,100.4,64.4,31,29.80,-9999.0,SSW,5.8,-,N/A,,Unknown,200,2012-11-27 03:00:00
12:00 PM,101,62,19,29.78,,NNW,6.9,,,,,340,2012-11-27 04:00:00
12:00 PM,100.4,62.6,29,29.77,-9999.0,NNW,6.9,-,N/A,,Unknown,340,2012-11-27 04:00:00
1:00 PM,102.2,64.4,29,29.74,-9999.0,NW,4.6,-,N/A,,Unknown,310,2012-11-27 05:00:00
2:00 PM,100.4,62.6,29,29.71,-9999.0,NW,8.1,-,N/A,,Unknown,320,2012-11-27 06:00:00
3:00 PM,105,63,17,29.70,,NNW,9.2,,,,,340,2012-11-27 07:00:00
3:00 PM,105.8,62.6,24,29.71,-9999.0,NNW,9.2,-,N/A,,Unknown,340,2012-11-27 07:00:00
4:00 PM,98.6,57.2,25,29.71,-9999.0,NNW,9.2,-,N/A,,Unknown,340,2012-11-27 08:00:00
5:00 PM,96.8,59.0,28,29.74,-9999.0,NW,6.9,-,N/A,,Unknown,320,2012-11-27 09:00:00
6:00 PM,91,66,33,29.75,,NW,6.9,,,,,310,2012-11-27 10:00:00
6:00 PM,91.4,66.2,43,29.74,-9999.0,NW,6.9,-,N/A,,Unknown,310,2012-11-27 10:00:00
7:00 PM,87.8,69.8,55,29.77,-9999.0,NW,6.9,-,N/A,,Unknown,310,2012-11-27 11:00:00
8:00 PM,87.8,73.4,62,29.77,-9999.0,NW,6.9,-,N/A,,Unknown,310,2012-11-27 12:00:00
9:00 PM,86,77,69,29.78,,NNW,6.9,,,,,330,2012-11-27 13:00:00
9:00 PM,86.0,77.0,74,29.80,-9999.0,NNW,6.9,-,N/A,,Unknown,330,2012-11-27 13:00:00
10:00 PM,84.2,77.0,79,29.80,-9999.0,NW,4.6,-,N/A,,Unknown,310,2012-11-27 14:00:00
11:00 PM,84.2,71.6,66,29.80,-9999.0,WNW,5.8,-,N/A,,Unknown,300,2012-11-27 15:00:00